Weather History for EBCV - May, 2013

Change the Weather History Date:

Tuesday, May 28, 2013

  Actual Average Record
Temperature  
Mean Temperature 55 °F -  
Max Temperature 67 °F 63 °F 75 °F (2012)
Min Temperature 43 °F 53 °F 43 °F (2013)
Degree Days  
Heating Degree Days 10    
Growing Degree Days 5 (Base 50)    
Moisture  
Dew Point 47 °F    
Average Humidity 80    
Maximum Humidity 100    
Minimum Humidity 43    
Precipitation  
Precipitation 0.01 in - - ()
Sea Level Pressure  
Sea Level Pressure 29.61 in    
Wind  
Wind Speed 7 mph ()    
Max Wind Speed 16 mph    
Max Gust Speed -    
Visibility 6.8 miles    
Events Rain    
Averages and records for this station are not official NWS values.
T = Trace of Precipitation, MM = Missing Value Source: Averaged Metar Reports

Daily Weather History Graph

Daily Weather History Graph

Search for Another Location

Airport or City:

Trip Planner

Search our weather history database for the weather conditions in past years. The results will help you decide how hot, cold, wet, or windy it might be!

Date:

Astronomy

May. 28, 2013 Rise Set
Actual Time 5:41 AM CEST 9:43 PM CEST
Civil Twilight 4:58 AM CEST 10:26 PM CEST
Nautical Twilight 3:57 AM CEST 11:27 PM CEST
Astronomical Twilight 2:14 AM CEST 1:09 AM CEST
Moon 12:01 AM CEST (5/28) 9:19 AM CEST (5/28)
Length of Visible Light 17h 28m
Length of Day
16h 02m
Waning Gibbous, 85% of the Moon is Illuminated
May 28
Waning Gibbous
May 31
Last Quarter
Jun 8
New
Jun 16
First Quarter
Jun 23
Full

Hourly Weather History & Observations

Time (CEST) Temp. Windchill Dew Point Humidity Pressure Visibility Wind Dir Wind Speed Gust Speed Precip Events Conditions
12:25 AM 48.2 °F - 42.8 °F 82% 29.77 in 6.2 mi North - - N/A   Clear
1:25 AM 48.2 °F - 42.8 °F 82% 29.74 in 6.2 mi North - - N/A   Clear
2:00 AM 47 °F - 42 °F 76% 29.75 in 16 mi Calm Calm - -  
2:25 AM 46.4 °F - 41.0 °F 81% 29.71 in 6.2 mi North - - N/A   Clear
3:25 AM 44.6 °F - 39.2 °F 81% 29.71 in 6.2 mi North - - N/A   Clear
4:25 AM 44.6 °F - 39.2 °F 81% 29.68 in 6.2 mi North - - N/A   Clear
5:00 AM 44 °F - 40 °F 79% 29.69 in 17 mi Calm Calm - -  
5:25 AM 44.6 °F 39.7 °F 39.2 °F 81% 29.65 in 6.2 mi ESE 9.2 mph - N/A   Partly Cloudy
6:25 AM 44.6 °F 40.7 °F 41.0 °F 87% 29.65 in 6.2 mi ESE 6.9 mph - N/A   Partly Cloudy
7:25 AM 50.0 °F - 41.0 °F 71% 29.62 in 6.2 mi ESE 9.2 mph - N/A   Scattered Clouds
8:00 AM 53 °F - 42 °F 57% 29.64 in 19 mi ESE 8.9 mph - -   Scattered Clouds
8:25 AM 55.4 °F - 42.8 °F 63% 29.62 in 6.2 mi ESE 9.2 mph - N/A   Scattered Clouds
9:25 AM 59.0 °F - 46.4 °F 63% 29.59 in 6.2 mi ESE 9.2 mph - N/A   Scattered Clouds
10:25 AM 62.6 °F - 44.6 °F 52% 29.59 in 6.2 mi ESE 9.2 mph - N/A   Scattered Clouds
11:00 AM 62 °F - 46 °F 45% 29.60 in 19 mi ESE 8.9 mph - -   Partly Cloudy
11:25 AM 64.4 °F - 44.6 °F 49% 29.56 in 6.2 mi ESE 8.1 mph - N/A   Mostly Cloudy
12:25 PM 66.2 °F - 46.4 °F 49% 29.56 in 6.2 mi ESE 15.0 mph - N/A   Scattered Clouds
1:25 PM 68.0 °F - 48.2 °F 49% 29.53 in 6.2 mi SE 10.4 mph - N/A   Mostly Cloudy
2:00 PM 66 °F - 49 °F 43% 29.55 in 25 mi South 8.9 mph - -   Mostly Cloudy
2:25 PM 66.2 °F - 50.0 °F 56% 29.53 in 6.2 mi SSW 15.0 mph - N/A   Mostly Cloudy
3:25 PM 62.6 °F - 50.0 °F 63% 29.56 in 6.2 mi SW 16.1 mph - N/A   Scattered Clouds
4:25 PM 62.6 °F - 50.0 °F 63% 29.56 in 6.2 mi SW 15.0 mph - N/A   Partly Cloudy
5:00 PM 60 °F - 50 °F 60% 29.58 in 22 mi WSW 13.4 mph - -   Partly Cloudy
5:25 PM 57.2 °F - 46.4 °F 67% 29.56 in 6.2 mi SW 13.8 mph - N/A   Mostly Cloudy
6:25 PM 55.4 °F - 48.2 °F 77% 29.59 in 6.2 mi SW 5.8 mph - N/A Rain Light Rain
7:25 PM 53.6 °F - 53.6 °F 100% 29.56 in 6.2 mi SW 5.8 mph - N/A   Light Drizzle
8:00 PM 53 °F - 53 °F 99% 29.60 in 8 mi SW 4.5 mph - - Rain Drizzle
8:25 PM 51.8 °F - 51.8 °F 100% 29.59 in 5.6 mi Variable 3.5 mph - N/A Rain Rain
8:28 PM 51.8 °F - 51.8 °F 100% 29.59 in 3.7 mi Variable 3.5 mph - N/A Rain Heavy Rain
8:35 PM 51.8 °F - 51.8 °F 100% 29.56 in 5.0 mi Variable 3.5 mph - N/A Rain Heavy Rain
8:50 PM 51.8 °F - 51.8 °F 100% 29.59 in 4.3 mi Variable 3.5 mph - N/A Rain Rain
8:57 PM 51.8 °F - 51.8 °F 100% 29.59 in - Variable 2.3 mph - N/A Rain Rain
9:14 PM 51.8 °F - 51.8 °F 100% 29.59 in - Variable 2.3 mph - N/A Rain Heavy Rain
9:20 PM 51.8 °F - 51.8 °F 100% 29.59 in - Variable 2.3 mph - N/A Rain Heavy Rain
9:25 PM 51.8 °F - 51.8 °F 100% 29.59 in 3.1 mi Variable 2.3 mph - N/A Rain Heavy Rain
9:26 PM 51.8 °F - 51.8 °F 100% 29.59 in 3.1 mi Variable 2.3 mph - N/A Rain Heavy Rain
9:45 PM 51.8 °F - 51.8 °F 100% 29.59 in 5.0 mi East 4.6 mph - N/A Rain Rain
9:54 PM 51.8 °F - 50.0 °F 94% 29.59 in 5.0 mi Variable 3.5 mph - N/A Rain Rain
10:25 PM 51.8 °F - 50.0 °F 94% 29.59 in 3.1 mi Variable 1.2 mph - N/A Rain Rain
10:56 PM 51.8 °F - 50.0 °F 94% 29.59 in 5.0 mi Variable 2.3 mph - N/A Rain Rain
11:00 PM 51 °F - 50 °F 96% 29.62 in 4 mi 2.2 mph - - Rain Rain
11:21 PM 51.8 °F - 50.0 °F 94% 29.62 in 4.3 mi South 5.8 mph - N/A Rain Light Rain
11:25 PM 51.8 °F - 50.0 °F 94% 29.62 in 3.7 mi South 5.8 mph - N/A Rain Light Rain
11:59 PM 51.8 °F - 50.0 °F 94% 29.62 in 6.2 mi WSW 9.2 mph - N/A   Drizzle